Simultaneous Nadir Overpasses (SNOs) Predictions

Prediction of SNOs between GOES-17 and AQUA Satellite Orbit:

Table of predicted SNOs for the next 14.0 days since TLE Epoch: 8/31/2024
Index Date Time (GOES-17) GOES-17 Lat,Lon AQUA Lat,Lon Distance(km) Time Diff (sec)
1 08/31/2024 09:31:01 -0.01,-104.70 0.76,-108.28 407.91 80
2 09/02/2024 09:11:02 -0.01,-104.69 -0.17,-104.05 73.60 80
3 09/02/2024 21:31:06 0.01,-104.70 -0.87,-108.91 477.98 80
4 09/04/2024 21:16:23 0.01,-104.70 0.01,-104.65 5.61 80
5 09/06/2024 20:58:58 0.01,-104.70 0.93,-100.39 490.29 80
6 09/07/2024 09:18:52 -0.01,-104.70 0.10,-105.21 57.77 80
7 09/09/2024 08:58:44 -0.02,-104.70 -0.83,-100.94 427.74 80
8 09/09/2024 21:18:44 0.02,-104.70 -0.24,-105.78 123.22 80
9 09/11/2024 21:03:54 0.02,-104.69 0.71,-101.50 363.55 80
10 09/12/2024 09:23:45 -0.02,-104.69 0.34,-106.30 183.45 80
